Flag for Norway Weather past 2 weeks in Jørpeland, Norway

Now
30 °F

Passing clouds.


Feels Like: 25 °F
Forecast: 36 / 40 °F
Wind: 5 mph from South

Location: Stavanger / Sola

Current Time: Dec 29, 2014 at 6:24:34 AM

Latest Report: Dec 29, 2014 at 5:50 AM


Visibility: N/A

Pressure: 30.39 "Hg

Humidity: 93%

Dew point: 28 °F

Location of JørpelandLocation

Historic Weather in Jørpeland — Graph

°F

Jørpeland temperature yesterday

Maximum temperature yesterday: 36 °F (at 11:20 AM)
Minimum temperature yesterday: 21 °F (at 4:50 AM)
Average temperature yesterday: 32 °F

Past Weeks' High & Low Weather Summary

 TemperatureHumidityPressure
High50 °F (Dec 21, 9:20 PM)100% (Dec 18, 7:50 PM)30.39 "Hg (Dec 18, 7:50 PM)
Low21 °F (Dec 28, 4:50 AM)52% (Dec 15, 6:20 PM)29.18 "Hg (Dec 18, 5:50 PM)
Average39 °F82%29.60 "Hg
* Reported Dec 14 4:50 AM — Dec 29 4:50 AM, Jørpeland, Weather by CustomWeather, © 2014

Note: Actual official high and low records may vary slightly from our data, if they occured in-between our weather recording intervals... More about our weather records

Advertising

Jørpeland weather history for previous 24 hours

 ConditionsComfort  
Time TempWeatherWind HumidityBarometerVisibility
4:50 AM
Dec 29
30 °FClear.5 mph93%30.39 "Hg10 mi
3:50 AM32 °FClear.2 mph87%30.39 "Hg10 mi
2:50 AM32 °FClear.No wind87%30.39 "Hg10 mi
1:50 AM34 °FClear.3 mph87%30.36 "Hg10 mi
12:50 AM34 °FClear.8 mph87%30.36 "Hg10 mi
11:50 PM
Dec 28
36 °FClear.12 mph81%30.36 "Hg10 mi
11:20 PM34 °FClear.7 mph87%30.33 "Hg10 mi
10:50 PM36 °FPassing clouds.7 mph81%30.33 "HgN/A
10:20 PM36 °FClear.12 mph81%30.33 "Hg10 mi
9:50 PM36 °FClear.13 mph81%30.33 "HgN/A
9:20 PM34 °FClear.9 mph87%30.30 "HgN/A
8:50 PM36 °FPassing clouds.12 mph87%30.30 "HgN/A
8:20 PM36 °FPassing clouds.12 mph87%30.27 "HgN/A
7:50 PM36 °FPassing clouds.14 mph87%30.27 "HgN/A
7:20 PM36 °FPassing clouds.13 mph87%30.24 "HgN/A
6:50 PM36 °FPassing clouds.14 mph87%30.24 "HgN/A
6:20 PM36 °FPassing clouds.9 mph93%30.24 "HgN/A
5:50 PM36 °FPartly cloudy.12 mph93%30.24 "HgN/A
5:20 PM36 °FPassing clouds.8 mph93%30.21 "HgN/A
4:50 PM34 °FPassing clouds.6 mph100%30.18 "Hg4 mi
4:20 PM34 °FPassing clouds.No wind100%30.18 "HgN/A
3:50 PM36 °FPassing clouds.2 mph93%30.15 "HgN/A
3:20 PM36 °FDrizzle. Partly sunny.2 mph93%30.15 "HgN/A
2:50 PM36 °FDrizzle. Broken clouds.3 mph93%30.15 "HgN/A
2:20 PM36 °FBroken clouds.1 mph100%30.15 "HgN/A
1:50 PM36 °FSprinkles. Broken clouds.2 mph93%30.15 "HgN/A
1:20 PM36 °FScattered showers. Partly sunny.5 mph93%30.18 "HgN/A
12:50 PM36 °FScattered showers. Partly sunny.6 mph93%30.18 "HgN/A
12:20 PM36 °FScattered showers. Partly sunny.3 mph93%30.18 "HgN/A
11:50 AM36 °FSprinkles. Broken clouds.2 mph93%30.18 "HgN/A
11:20 AM36 °FScattered showers. Broken clouds.3 mph87%30.18 "HgN/A
10:50 AM34 °FLight rain. Partly sunny.7 mph93%30.18 "Hg4 mi
10:20 AM34 °FSprinkles. Partly sunny.13 mph93%30.18 "Hg4 mi
9:50 AM32 °FSprinkles. Partly sunny.9 mph87%30.18 "HgN/A
9:20 AM32 °FPartly cloudy.10 mph75%30.18 "HgN/A
8:50 AM30 °FPartly cloudy.8 mph75%30.21 "HgN/A
8:20 AM30 °FPartly cloudy.8 mph75%30.21 "HgN/A
7:50 AM30 °FPassing clouds.8 mph69%30.21 "HgN/A
7:20 AM28 °FPassing clouds.9 mph74%30.21 "HgN/A
6:50 AM28 °FPassing clouds.6 mph74%30.21 "HgN/A
6:20 AM28 °FPartly cloudy.7 mph69%30.21 "HgN/A
Weather by CustomWeather, © 2014

See weather overviewHow to use our weather pages